This is the latest recevied weather packets stored in our database for station/object WA0LM. If no packets are shown the sender has not sent any weather packets the latest 10 day(s).
| Time | Temp. | Humidity | Pressure | Rain* | Wind** | Luminosity | Snow |
|---|---|---|---|---|---|---|---|
| 1777242090 | 10° C | 79% | 1013.9 hPa | 0 mm | - | 150 W/m² | - |
| 1777241788 | 10° C | 80% | 1014 hPa | 0 mm | - | 190 W/m² | - |
| 1777241485 | 10° C | 81% | 1013.9 hPa | 0 mm | - | 202 W/m² | - |
| 1777241183 | 10° C | 80% | 1014 hPa | 0 mm | - | 224 W/m² | - |
| 1777240880 | 10° C | 78% | 1013.9 hPa | 0 mm | - | 208 W/m² | - |
| 1777240578 | 10° C | 78% | 1014.2 hPa | 0 mm | - | 134 W/m² | - |
| 1777240275 | 10° C | 77% | 1014.1 hPa | 0 mm | - | 162 W/m² | - |
| 1777239972 | 10° C | 78% | 1014.3 hPa | 0 mm | - | 183 W/m² | - |
| 1777239670 | 9.44° C | 77% | 1014.8 hPa | 0 mm | - | 110 W/m² | - |
| 1777239366 | 9.44° C | 77% | 1014.8 hPa | 0 mm | - | 93 W/m² | - |
| 1777239063 | 9.44° C | 76% | 1014.7 hPa | 0 mm | - | 76 W/m² | - |
| 1777238760 | 10° C | 76% | 1014.6 hPa | 0 mm | - | 94 W/m² | - |
| 1777238457 | 10° C | 75% | 1014.6 hPa | 0 mm | - | 76 W/m² | - |
| 1777238153 | 10° C | 75% | 1015 hPa | 0 mm | - | 87 W/m² | - |
| 1777237851 | 10° C | 75% | 1014.7 hPa | 0 mm | - | 81 W/m² | - |
| 1777237547 | 10° C | 75% | 1014.7 hPa | 0 mm | - | 79 W/m² | - |
| 1777237244 | 9.44° C | 76% | 1014.8 hPa | 0 mm | - | 101 W/m² | - |
| 1777236942 | 9.44° C | 76% | 1014.7 hPa | 0 mm | - | 91 W/m² | - |
| 1777236638 | 9.44° C | 76% | 1014.9 hPa | 0 mm | - | 58 W/m² | - |
| 1777236333 | 9.44° C | 75% | 1014.8 hPa | 0 mm | - | 38 W/m² | - |
| 1777236030 | 9.44° C | 74% | 1014.6 hPa | 0 mm | - | 54 W/m² | - |
| 1777235726 | 9.44° C | 74% | 1014.6 hPa | 0 mm | - | 85 W/m² | - |
| 1777235424 | 9.44° C | 75% | 1014.8 hPa | 0 mm | - | 98 W/m² | - |
| 1777235120 | 9.44° C | 75% | 1015.1 hPa | 0 mm | - | 102 W/m² | - |
| 1777234815 | 9.44° C | 75% | 1015 hPa | 0 mm | - | 100 W/m² | - |
* Rain latest hour (hover to see other rain measurements)
** Current wind speed in m/s (hover to see current wind gust speed)